Location: ??????
(41.3534°N, 20.6064°E)
Time: 07:10:01
(UTC+00:00)

Daily predictions for brighter satellites

Satellite Brightness Start Highest point End
(mag) Time Altitude Azimuth Time Altitude Azimuth Time Altitude Azimuth
Radarsat Rocket 4.3 15:57:29 10° SSE 16:03:37 77° WSW 16:09:28 10° NNW
Cosmos 1331 Rocket 4.0 15:59:01 10° SSW 16:04:09 78° ESE 16:09:19 10° NNE
Cosmos 1300 3.0 16:02:16 10° SSE 16:05:54 44° E 16:09:33 10° NNE
Cosmos 1953 Rocket 4.0 16:01:49 10° N 16:05:58 39° ENE 16:10:08 10° SSE
Cosmos 2058 Rocket 3.9 16:03:00 10° SSE 16:06:53 30° E 16:10:49 10° NNE
H-2A R/B 4.2 16:05:50 10° S 16:09:59 41° W 16:14:17 10° NNW
SL-4 R/B 3.8 16:07:42 10° NW 16:10:01 16° N 16:12:23 10° NE
NOAA 11 4.3 16:07:16 10° SSE 16:12:35 56° ENE 16:17:53 10° N
Cosmos 44 3.1 16:08:59 10° SSW 16:13:25 90° ESE 16:18:10 10° NNE
Cosmos 1703 4.4 16:10:24 10° NNW 16:14:14 50° W 16:18:03 10° S
Aureole 3 Rocket 3.4 16:19:31 10° SSE 16:23:05 41° E 16:27:49 10° NNE
Cosmos 968 Rocket 4.4 16:20:23 10° N 16:24:48 27° ENE 16:29:09 10° ESE
Cosmos 1980 Rocket 3.9 16:23:14 10° ESE 16:24:55 11° E 16:25:27 11° E
ERS-2 2.6 16:23:04 10° N 16:26:42 64° WNW 16:30:17 10° SSW
SAR-Lupe-4 3.5 16:23:17 10° NNE 16:26:52 63° ESE 16:30:23 10° S
Cosmos 2297 Rocket 2.6 16:22:00 10° N 16:27:22 41° ENE 16:32:41 10° SE
In-Cosmos 22 Rocket 4.5 16:25:20 10° N 16:30:25 42° ENE 16:35:35 10° SE
FengYun 1-2 T 4.3 16:24:51 10° SSE 16:30:31 89° ENE 16:36:12 10° NNW
Cosmos 1340 3.2 16:27:44 10° N 16:31:16 36° ENE 16:34:46 10° SE
COSMO-SKYMED 1 2.6 16:28:34 10° NNE 16:32:52 56° E 16:37:07 10° S
H-2A R/B 4.4 16:31:10 10° NNW 16:34:30 24° WNW 16:37:48 10° WSW
Cosmos 1302 Rocket 4.0 16:29:51 10° SSW 16:35:04 75° ESE 16:40:22 10° NNE
Lacrosse 5 4.1 16:38:03 10° NW 16:40:34 14° N 16:43:05 10° NNE
Cosmos 292 Rocket 4.4 16:37:21 10° SSW 16:42:04 59° WNW 16:46:51 10° NNE
Aureole 3 2.5 16:39:07 10° S 16:42:22 74° E 16:45:21 10° NNE
Timation 2 Rocket 4.1 16:35:53 10° NNW 16:42:34 86° ENE 16:49:24 10° SSE
Okean O Rocket 3.3 16:39:05 10° SSW 16:43:07 37° W 16:47:11 10° NNW
SAR-Lupe-1 4.1 16:41:08 10° N 16:44:44 81° WNW 16:48:19 10° SSW
YAOGAN 1 3.2 16:41:05 10° SE 16:44:58 33° ENE 16:48:51 10° N
Cosmos 1486 Rocket 4.4 16:40:05 10° N 16:45:09 42° ENE 16:50:09 10° SE
Meteor 2-8 Rocket 4.4 16:39:13 10° S 16:45:15 71° E 16:51:22 10° NNE
USA 281 4.1 16:39:07 10° S 16:45:29 54° WSW 16:51:55 10° NNW
FALCON 9 DEB 4.4 16:45:54 10° W 16:48:51 32° NNW 16:51:05 15° NNE
CZ-2C R/B 3.6 16:45:39 10° SE 16:51:07 45° ENE 16:56:28 10° N
Cosmos 1455 2.8 16:51:07 10° SSE 16:54:28 31° E 16:56:09 21° NE
Cosmos 44 Rocket 4.3 16:52:14 10° SSE 16:56:04 25° ESE 16:56:39 24° E
Cosmos 2219 3.1 16:51:57 10° NNW 16:57:44 77° ENE 17:03:28 10° SSE
Cosmos 1553 Rocket 3.9 16:51:58 10° S 16:58:19 75° E 17:04:36 10° N
Meteor 2-10 Rocket 3.6 16:56:11 10° S 17:01:24 55° E 17:06:26 10° NNE
Cosmos 1939 Rocket 3.1 16:58:59 10° S 17:02:56 68° W 17:06:52 10° NNW
USA 307 4.1 17:00:09 10° NW 17:03:47 26° NNE 17:04:41 24° NE
Cosmos 2082 4.2 17:01:01 10° N 17:06:23 39° ENE 17:08:49 27° ESE
CZ-4B R/B 4.2 17:04:13 10° NNW 17:06:31 18° WNW 17:08:46 10° WSW
CZ-4 R/B 4.5 17:03:17 10° S 17:07:26 81° WSW 17:11:37 10° NNW
USA 308 4.0 17:04:57 10° NW 17:08:40 27° NNE 17:09:20 26° NE
Helios 1A Rocket 2.9 17:05:56 10° SSE 17:10:04 86° W 17:14:11 10° NNW
Cosmos 1992 Rocket 3.9 17:09:02 10° S 17:14:11 67° ESE 17:19:22 10° NNE
ARGOS 3.7 17:13:09 31° ESE 17:14:38 37° ENE 17:19:35 10° N
Okean-O 2.6 17:12:04 10° SSE 17:16:29 86° WSW 17:20:57 10° NNW
Cosmos 2369 3.7 17:11:38 10° S 17:17:12 56° ESE 17:21:09 19° NE
Meteor 2-15 4.4 17:13:06 10° S 17:19:14 86° E 17:25:24 10° N
OAO 2 Rocket 4.1 17:15:39 10° WSW 17:20:13 38° S 17:21:36 31° SE
Cosmos 1656 4.1 17:15:22 10° SW 17:20:51 62° WNW 17:26:28 10° NNE
Cosmos 1689 Rocket 4.3 17:19:36 10° NNW 17:22:03 25° WNW 17:24:29 10° SW
H-2A R/B 2.1 17:18:53 10° SSE 17:24:10 60° ENE 17:29:33 10° N
GEOS 3 Rocket 3.9 17:24:33 40° E 17:25:50 48° NE 17:31:00 10° NNW
CZ-4 R/B 1.6 17:23:01 10° S 17:26:55 67° W 17:30:46 10° NNW
Cosmos 1745 Rocket 3.9 17:20:49 10° N 17:27:09 82° E 17:33:30 10° S
Geosat 3.9 17:26:30 17° NNE 17:30:26 86° ESE 17:35:27 10° SSW
Cosmos 220 Rocket 4.1 17:26:47 10° SSW 17:31:07 74° WNW 17:34:08 20° NNE
Cosmos 2227 Rocket 2.3 17:25:59 10° NNW 17:31:38 75° WSW 17:37:16 10° SSE
Cosmos 2058 2.8 17:27:35 10° N 17:31:42 84° W 17:35:16 13° S
CSL-04 Rocket 3.6 17:26:57 10° SSE 17:32:28 71° ENE 17:37:59 10° N
Cosmos 1892 3.5 17:29:11 10° NNW 17:32:59 53° W 17:36:45 10° S
Atlas Centaur 2 3.9 17:26:39 10° WSW 17:34:14 38° S 17:37:33 28° SE
Cosmos 1408 2.7 17:33:33 10° NNW 17:37:12 73° W 17:37:15 73° WSW
Cosmos 2263 Rocket 3.8 17:33:01 10° N 17:35:34 19° NNE 17:35:34 19° NNE
Meteor 2-1 Rocket 4.2 17:34:16 10° SSW 17:39:46 77° W 17:45:18 10° N
NOSS 3-4 (A) 4.5 17:37:23 10° NNW 17:43:42 35° NE 17:44:12 35° NE
NOSS 3-4 (C) 4.5 17:37:30 10° NNW 17:43:47 35° NE 17:44:16 35° NE
CZ-4C R/B 4.3 17:39:08 10° NNW 17:44:05 20° NNE 17:44:25 20° NE
Cosmos 1697 Rocket 2.8 17:39:48 10° SSW 17:45:23 74° WNW 17:49:37 18° NNE
SeaSat 1 3.0 17:46:27 44° NNE 17:46:27 44° NNE 17:50:18 10° NNW
SL-4 R/B 3.9 17:47:30 10° NW 17:49:04 19° NNW 17:49:04 19° NNW
NOSS 3-3 (A) 4.1 17:44:57 10° SW 17:50:40 70° NW 17:54:18 27° NNE
NOSS 3-3 (C) 4.1 17:45:02 10° SW 17:50:48 70° NW 17:54:24 27° NNE
Cosmos 1346 Rocket 3.8 17:48:07 10° NNW 17:51:57 45° W 17:54:07 22° SSW
USA 215 4.1 17:51:39 31° NE 17:52:33 32° NNE 17:58:11 10° NW
Cosmos 1825 4.3 17:50:27 10° NNW 17:51:38 19° NNW 17:51:38 19° NNW
Cosmos 1315 Rocket 3.9 17:50:30 10° SSW 17:54:16 44° WNW 17:56:19 24° NNW
USA 305 4.0 17:50:35 10° NW 17:53:27 36° NNW 17:53:27 36° NNW
Cosmos 1709 Rocket 3.9 17:50:33 10° N 17:56:57 80° E 17:59:42 37° SSE
USA 306 4.2 17:56:58 10° NW 17:59:35 34° NNW 17:59:35 34° NNW
BREEZE-M R/B 4.4 17:59:56 10° NW 18:04:43 55° NNE 18:05:19 53° NE
ATLAS 2AS CENTAUR R/B 3.5 17:58:57 10° NNW 18:05:17 37° NNE 18:05:17 37° NNE
Cosmos 1980 Rocket 2.2 18:02:23 10° SSW 18:07:19 70° SSW 18:07:19 70° SSW
MOS 1 Rocket 4.4 18:05:21 10° N 18:09:49 45° WNW 18:14:32 10° SW
Cosmos 2297 Rocket 4.0 18:06:26 10° NW 18:11:11 28° WSW 18:15:56 10° SSW
Cosmos 2315 Rocket 3.9 18:07:13 10° S 18:13:25 81° W 18:19:39 10° N
Lacrosse 5 4.2 18:21:54 10° NNW 18:23:30 15° N 18:23:30 15° N
Milstar 3 4.1 18:26:50 10° WSW 18:31:53 27° SSW 18:31:53 27° SSW
Atlas Centaur 2 4.5 19:15:48 10° WSW 19:20:08 27° SW 19:20:08 27° SW
CZ-4C R/B 4.4 19:26:47 10° NNW 19:29:36 26° NNW 19:29:36 26° NNW
